{"data":{"norad_id":60291,"intl_designator":"2024-132P","name":"STARLINK-32142","alt_names":[],"object_type":"PAYLOAD","status":"ACTIVE","operator":null,"country":"US","launch_date":"2024-07-28","launch_site_code":"AFETR","launch_vehicle":null,"mission":null,"orbit_class":"UNKNOWN","rcs_meters":null,"size_class":null,"mass_kg":null,"dimensions":null,"purposes":["comms"],"wikipedia_slug":null,"has_3d_model":false,"image_url":null,"decayed_at":null,"tle_current":{"epoch":"2026-09-21T14:00:17.974368Z","epoch_age_seconds":87947,"freshness":"FRESH","line1":"1 60291U 24132P   26264.58354137  .00000627  00000+0  29703-4 0  9995","line2":"2 60291  53.1594 220.3219 0001244  94.9544 265.1601 15.34383436121580","mean_motion":15.34383436,"eccentricity":0.0001244,"inclination_deg":53.1594,"raan_deg":220.3219,"arg_perigee_deg":94.9544,"mean_anomaly_deg":265.1601,"bstar":2.9703e-5,"rev_number":12158,"period_min":93.848771188117,"perigee_km":461.90146569834,"apogee_km":463.60347899906,"semimajor_km":6840.8894723487,"source":"CELESTRAK","updated_at":"2026-09-22T09:00:49.194111Z"}}}